Location: Unspecified
(0.0000°N, 0.0000°E)
Time: 15:45:06
(UTC+00:00)

COSMOS 2501 (GLONASS) - Pass Details

Date: 01 November 2019
Orbit: 19086 x 19173 km, 64.0° (Epoch: 17 November)

Event Time Altitude Azimuth Distance (km) Brightness Sun altitude
Rises 23:01:01 0° 329° (NNW) 24,728 ? -72.3°
Reaches altitude 10° 23:51:34 10° 349° (N) 23,623 ? -75.6°
Maximum altitude 02:32:40 68° 92° (E) 19,457 ? -45.8°
Drops below altitude 10° 04:46:58 10° 160° (SSE) 23,582 ? -13.7°
Sets 05:10:41 0° 158° (SSE) 24,678 ? -8.0°
